USA 254

Last updated on Tue Nov 23 2021 00:02:36 GMT+0000 (Coordinated Universal Time)

1 40100U 14043B 21326.43085218 -.00000150 00000+0 00000+0 0 9997 2 40100 0.3947 96.5381 0001301 228.4256 68.9568 0.99129651 2024
UTC large
Height (km)
Speed (km/s)
/
Latitude / Longitude
Inclination (degrees)
Orbital Period (minutes)
Azimuth
Elevation
Range (km)
Doppler Factor

Next 0 passes for location: London (51.5072 / 0.1276)

Sorry there are no passes over London.